Location: ČR
(50.0000°N, 15.0000°E)
Time: 21:59:13
(UTC+00:00)

Vanguard 3 - Pass Details

Date: 30 October 2021
Orbit: 508 x 3260 km, 33.4° (Epoch: 04 December)

Event Time Altitude Azimuth Distance (km) Brightness Sun altitude
Rises 17:08:32 0° 243° (WSW) 3,260 11.6 -14.7°
Reaches altitude 10° 17:11:24 10° 223° (SW) 2,634 10.5 -15.1°
Maximum altitude 17:15:36 18° 182° (S) 2,545 9.7 -15.8°
Drops below altitude 10° 17:21:20 10° 143° (SE) 3,782 10.2 -16.7°
Enters shadow 17:24:20 - 134° (SE) 4,655 10.6 -17.2°
Sets 17:26:43 0° 129° (SE) 5,370 - -17.6°
